When you browse on this site, cookies collect data to enhance your experience and personalize the content and advertising you see.
Visit our Privacy Policy to learn more. By continuing to use the site, you agree to this use of cookies and data.
  • In Hungary
  • List of Countries
  • For 7 days
  • Water Temperature
  • Satellite Maps
  • Weather Map
  • News
  • Weather Widgets
  • user-avatar
    Login

    Hourly Weather Jinotepe

    Today, 18 January, Friday

    Time Temperature Precipitation Wind Pressure Humidity
    00:00 +22°C° 0 mm 6 mps 712 mmHg 76%
    01:00 +22°C° 0 mm 5 mps 712 mmHg 77%
    02:00 +22°C° 0 mm 5 mps 711 mmHg 77%
    03:00 +22°C° 0 mm 5 mps 711 mmHg 78%
    04:00 +21°C° 0 mm 5 mps 711 mmHg 78%
    05:00 +21°C° 0 mm 5 mps 711 mmHg 77%
    06:00 +21°C° 0 mm 5 mps 712 mmHg 77%
    07:00 +23°C° 0 mm 6 mps 712 mmHg 71%
    08:00 +24°C° 0 mm 6 mps 713 mmHg 65%
    09:00 +26°C° 0 mm 7 mps 713 mmHg 58%
    10:00 +28°C° 0 mm 7 mps 713 mmHg 54%
    11:00 +29°C° 0 mm 7 mps 712 mmHg 49%
    12:00 +30°C° 0 mm 7 mps 712 mmHg 45%
    13:00 +32°C° 0 mm 7 mps 711 mmHg 45%
    14:00 +32°C° 0 mm 7 mps 711 mmHg 44%
    15:00 +32°C° 0 mm 7 mps 710 mmHg 44%
    16:00 +30°C° 0 mm 6 mps 710 mmHg 49%
    17:00 +28°C° 0 mm 6 mps 710 mmHg 54%
    18:00 +27°C° 0 mm 5 mps 710 mmHg 59%
    19:00 +26°C° 0 mm 5 mps 710 mmHg 63%
    20:00 +25°C° 0 mm 5 mps 711 mmHg 67%
    21:00 +24°C° 0 mm 6 mps 711 mmHg 71%
    22:00 +23°C° 0 mm 6 mps 711 mmHg 72%
    23:00 +23°C° 0 mm 6 mps 711 mmHg 73%

    Tomorrow, 19 January, Saturday

    Time Temperature Precipitation Wind Pressure Humidity
    00:00 +23°C° 0 mm 6 mps 711 mmHg 73%
    01:00 +22°C° 0 mm 6 mps 711 mmHg 75%
    02:00 +22°C° 0 mm 5 mps 711 mmHg 77%
    03:00 +22°C° 0 mm 5 mps 710 mmHg 79%
    04:00 +21°C° 0 mm 5 mps 710 mmHg 79%
    05:00 +21°C° 0 mm 5 mps 711 mmHg 80%
    06:00 +21°C° 0 mm 4 mps 711 mmHg 80%
    07:00 +22°C° 0 mm 5 mps 712 mmHg 72%
    08:00 +25°C° 0 mm 5 mps 712 mmHg 64%
    09:00 +26°C° 0 mm 5 mps 713 mmHg 55%
    10:00 +28°C° 0 mm 5 mps 713 mmHg 52%
    11:00 +29°C° 0 mm 5 mps 712 mmHg 49%
    12:00 +30°C° 0 mm 5 mps 712 mmHg 46%
    13:00 +32°C° 0 mm 5 mps 711 mmHg 46%
    14:00 +32°C° 0 mm 5 mps 710 mmHg 45%
    15:00 +32°C° 0 mm 5 mps 709 mmHg 45%
    16:00 +30°C° 0 mm 5 mps 709 mmHg 50%
    17:00 +28°C° 0 mm 5 mps 710 mmHg 54%
    18:00 +27°C° 0 mm 4 mps 710 mmHg 59%
    19:00 +26°C° 0 mm 4 mps 710 mmHg 63%
    20:00 +26°C° 0 mm 4 mps 711 mmHg 67%
    21:00 +25°C° 0 mm 4 mps 711 mmHg 71%
    22:00 +23°C° 0 mm 4 mps 711 mmHg 74%
    23:00 +23°C° 0 mm 4 mps 711 mmHg 77%

    Day after tomorrow, 20 January, Sunday

    Time Temperature Precipitation Wind Pressure Humidity
    00:00 +22°C° 0 mm 4 mps 711 mmHg 79%
    01:00 +22°C° 0 mm 4 mps 711 mmHg 80%
    02:00 +22°C° 0 mm 4 mps 711 mmHg 81%
    03:00 +21°C° 0 mm 4 mps 710 mmHg 81%
    04:00 +21°C° 0 mm 4 mps 711 mmHg 82%
    05:00 +21°C° 0 mm 4 mps 711 mmHg 82%
    06:00 +21°C° 0 mm 4 mps 711 mmHg 82%
    07:00 +23°C° 0 mm 4 mps 712 mmHg 74%
    08:00 +26°C° 0 mm 5 mps 713 mmHg 65%
    09:00 +28°C° 0 mm 5 mps 714 mmHg 57%
    10:00 +29°C° 0 mm 6 mps 713 mmHg 50%
    11:00 +32°C° 0 mm 6 mps 713 mmHg 44%
    12:00 +33°C° 0 mm 6 mps 713 mmHg 38%
    13:00 +33°C° 0 mm 6 mps 712 mmHg 36%
    14:00 +34°C° 0 mm 7 mps 711 mmHg 34%
    15:00 +34°C° 0 mm 7 mps 710 mmHg 32%
    16:00 +32°C° 0 mm 6 mps 710 mmHg 35%
    17:00 +30°C° 0 mm 6 mps 711 mmHg 38%
    18:00 +28°C° 0 mm 5 mps 711 mmHg 40%
    19:00 +27°C° 0 mm 6 mps 711 mmHg 48%
    20:00 +27°C° 0 mm 6 mps 712 mmHg 56%
    21:00 +26°C° 0 mm 6 mps 713 mmHg 64%
    22:00 +24°C° 0 mm 6 mps 712 mmHg 63%
    23:00 +24°C° 0 mm 7 mps 712 mmHg 63%

    21 January, Monday

    Time Temperature Precipitation Wind Pressure Humidity
    00:00 +23°C° 0 mm 7 mps 712 mmHg 63%
    01:00 +23°C° 0 mm 7 mps 712 mmHg 63%
    02:00 +23°C° 0 mm 7 mps 711 mmHg 64%
    03:00 +22°C° 0 mm 7 mps 711 mmHg 65%
    04:00 +22°C° 0 mm 7 mps 711 mmHg 65%
    05:00 +22°C° 0 mm 7 mps 712 mmHg 64%
    06:00 +22°C° 0 mm 7 mps 712 mmHg 64%
    07:00 +24°C° 0 mm 8 mps 713 mmHg 60%
    08:00 +26°C° 0 mm 8 mps 713 mmHg 56%
    09:00 +27°C° 0 mm 9 mps 714 mmHg 52%
    10:00 +28°C° 0 mm 9 mps 713 mmHg 48%
    11:00 +31°C° 0 mm 9 mps 713 mmHg 45%
    12:00 +32°C° 0 mm 9 mps 713 mmHg 41%
    13:00 +32°C° 0 mm 8 mps 712 mmHg 42%
    14:00 +32°C° 0 mm 8 mps 711 mmHg 42%
    15:00 +32°C° 0 mm 8 mps 710 mmHg 43%
    16:00 +29°C° 0 mm 8 mps 711 mmHg 48%
    17:00 +28°C° 0 mm 7 mps 711 mmHg 53%
    18:00 +26°C° 0 mm 7 mps 711 mmHg 57%
    19:00 +26°C° 0 mm 7 mps 711 mmHg 61%
    20:00 +24°C° 0 mm 7 mps 712 mmHg 65%
    21:00 +23°C° 0 mm 8 mps 712 mmHg 69%
    22:00 +23°C° 0 mm 7 mps 712 mmHg 70%
    23:00 +22°C° 0 mm 7 mps 712 mmHg 71%

    22 January, Tuesday

    Time Temperature Precipitation Wind Pressure Humidity
    00:00 +22°C° 0 mm 7 mps 712 mmHg 72%
    01:00 +22°C° 0 mm 7 mps 711 mmHg 73%
    02:00 +22°C° 0 mm 7 mps 711 mmHg 73%
    03:00 +21°C° 0 mm 7 mps 711 mmHg 74%
    04:00 +21°C° 0 mm 7 mps 711 mmHg 75%
    05:00 +21°C° 0 mm 7 mps 711 mmHg 76%
    06:00 +21°C° 0 mm 7 mps 711 mmHg 76%
    07:00 +23°C° 0 mm 7 mps 712 mmHg 71%
    08:00 +24°C° 0 mm 7 mps 712 mmHg 65%
    09:00 +26°C° 0 mm 8 mps 713 mmHg 59%
    10:00 +28°C° 0 mm 8 mps 713 mmHg 55%
    11:00 +29°C° 0 mm 8 mps 712 mmHg 51%
    12:00 +31°C° 0 mm 8 mps 712 mmHg 46%
    13:00 +31°C° 0 mm 8 mps 711 mmHg 45%
    14:00 +32°C° 0 mm 8 mps 711 mmHg 44%
    15:00 +32°C° 0 mm 8 mps 710 mmHg 42%
    16:00 +30°C° 0 mm 7 mps 710 mmHg 46%
    17:00 +28°C° 0 mm 7 mps 710 mmHg 51%
    18:00 +27°C° 0 mm 7 mps 710 mmHg 55%
    19:00 +26°C° 0 mm 7 mps 711 mmHg 60%
    20:00 +24°C° 0 mm 7 mps 711 mmHg 65%
    21:00 +24°C° 0 mm 7 mps 711 mmHg 70%
    22:00 +23°C° 0 mm 7 mps 711 mmHg 71%
    23:00 +23°C° 0 mm 7 mps 711 mmHg 72%

    23 January, Wednesday

    Time Temperature Precipitation Wind Pressure Humidity
    00:00 +22°C° 0 mm 7 mps 711 mmHg 72%
    01:00 +22°C° 0 mm 6 mps 711 mmHg 72%
    02:00 +22°C° 0 mm 6 mps 710 mmHg 72%
    03:00 +22°C° 0 mm 6 mps 710 mmHg 71%
    04:00 +22°C° 0 mm 6 mps 710 mmHg 72%
    05:00 +22°C° 0 mm 5 mps 711 mmHg 72%
    06:00 +22°C° 0 mm 5 mps 711 mmHg 72%
    07:00 +23°C° 0 mm 5 mps 712 mmHg 68%
    08:00 +26°C° 0 mm 6 mps 712 mmHg 63%
    09:00 +27°C° 0 mm 6 mps 713 mmHg 58%
    10:00 +29°C° 0 mm 6 mps 713 mmHg 53%
    11:00 +30°C° 0 mm 6 mps 712 mmHg 48%
    12:00 +32°C° 0 mm 6 mps 712 mmHg 43%
    13:00 +33°C° 0 mm 6 mps 711 mmHg 42%
    14:00 +33°C° 0 mm 6 mps 710 mmHg 41%
    15:00 +33°C° 0 mm 5 mps 710 mmHg 39%
    16:00 +32°C° 0 mm 5 mps 710 mmHg 45%
    17:00 +29°C° 0 mm 5 mps 710 mmHg 51%
    18:00 +28°C° 0 mm 5 mps 710 mmHg 57%
    19:00 +27°C° 0 mm 5 mps 710 mmHg 62%
    20:00 +26°C° 0 mm 5 mps 711 mmHg 67%
    21:00 +25°C° 0 mm 5 mps 711 mmHg 71%
    22:00 +25°C° 0 mm 5 mps 711 mmHg 73%
    23:00 +23°C° 0 mm 5 mps 711 mmHg 74%
    Show more